Weather History for Dixon AP, Dixon, WY, WY

Change the Weather History Date:

Saturday, March 1, 2014

  Actual Average (KCAG) Record (KCAG)
Temperature  
Mean Temperature 40 °F 26 °F  
Max Temperature 47 °F 39 °F 50 °F (1999)
Min Temperature 32 °F 13 °F -7 °F (2007)
Degree Days  
Heating Degree Days 26 39  
Month to date heating degree days 39  
Since 1 July heating degree days 6365  
Cooling Degree Days 0 0  
Month to date cooling degree days 0  
Year to date cooling degree days 0  
Moisture  
Dew Point 31 °F    
Average Humidity 75    
Maximum Humidity 94    
Minimum Humidity 43    
Precipitation  
Precipitation 0.00 in 0.04 in 0.21 in (2006)
Month to date precipitation 0.04  
Year to date precipitation 1.74  
Sea Level Pressure  
Sea Level Pressure 29.71 in    
Wind  
Wind Speed 13 mph (SW)    
Max Wind Speed 30 mph    
Max Gust Speed 37 mph    
Visibility 10 miles    
Events Rain , Snow    
T = Trace of Precipitation, MM = Missing Value Source: NWS Daily Summary

Daily Weather History Graph

Daily Weather History Graph

Search for Another Location

Airport:

Trip Planner

Search our weather history database for the weather conditions in past years. The results will help you decide how hot, cold, wet, or windy it might be!

Date:

Astronomy

Mar. 01, 2014 Rise Set
Actual Time 6:44 AM MST 6:01 PM MST
Civil Twilight 6:16 AM MST 6:28 PM MST
Nautical Twilight 5:44 AM MST 7:00 PM MST
Astronomical Twilight 5:12 AM MST 7:32 PM MST
Moon 6:39 AM MST (3/1) 6:52 PM MST (3/1)
Length of Visible Light 12h 12m
Length of Day
11h 17m
New Moon, 0% of the Moon is Illuminated
Mar 1
New Moon
Mar 8
First Quarter
Mar 16
Full
Mar 23
Last Quarter
Mar 30
New

Hourly Weather History & Observations

Time (MST) Temp. Windchill Dew Point Humidity Pressure Visibility Wind Dir Wind Speed Gust Speed Precip Events Conditions
12:15 AM 40.1 °F 32.4 °F 31.6 °F 72% 29.67 in 10.0 mi SSW 13.8 mph 19.6 mph N/A   Overcast
12:35 AM 39.2 °F 28.7 °F 32.2 °F 76% 29.68 in 10.0 mi SSW 23.0 mph 27.6 mph N/A Rain Rain
12:55 AM 35.2 °F 28.1 °F 33.3 °F 92% 29.68 in 10.0 mi SW 9.2 mph 20.7 mph N/A Rain Light Rain
1:15 AM 36.1 °F 30.6 °F 33.8 °F 91% 29.67 in 10.0 mi SW 6.9 mph - N/A Rain Light Rain
1:35 AM 36.5 °F 30.3 °F 33.8 °F 90% 29.67 in 7.0 mi WSW 8.1 mph - N/A Rain Light Rain
1:55 AM 36.0 °F 29.6 °F 33.4 °F 91% 29.67 in 10.0 mi WNW 8.1 mph - N/A   Overcast
2:15 AM 35.2 °F 30.3 °F 33.4 °F 93% 29.67 in 10.0 mi WNW 5.8 mph - N/A   Overcast
2:35 AM 34.9 °F 26.6 °F 33.3 °F 94% 29.67 in 10.0 mi NNW 11.5 mph - N/A   Overcast
2:55 AM 34.9 °F 29.9 °F 33.3 °F 94% 29.65 in 10.0 mi North 5.8 mph - N/A   Overcast
3:15 AM 35.4 °F 32.6 °F 33.3 °F 92% 29.65 in 7.0 mi NNW 3.5 mph - N/A Rain Light Rain
3:35 AM 35.4 °F 32.6 °F 33.4 °F 92% 29.64 in 10.0 mi NNW 3.5 mph - N/A   Overcast
3:55 AM 36.0 °F 33.3 °F 33.6 °F 91% 29.63 in 10.0 mi SW 3.5 mph - N/A   Overcast
4:15 AM 37.0 °F 32.4 °F 33.8 °F 88% 29.64 in 10.0 mi SSW 5.8 mph - N/A   Overcast
4:35 AM 37.6 °F 29.6 °F 34.3 °F 88% 29.62 in 10.0 mi SW 12.7 mph 17.3 mph N/A   Overcast
4:55 AM 38.3 °F 32.5 °F 34.9 °F 87% 29.62 in 10.0 mi SSW 8.1 mph 16.1 mph N/A   Overcast
5:15 AM 38.3 °F 30.5 °F 35.1 °F 88% 29.61 in 10.0 mi SSW 12.7 mph 24.2 mph N/A   Light Drizzle
5:35 AM 37.4 °F 27.8 °F 34.7 °F 90% 29.62 in 10.0 mi SSW 17.3 mph 25.3 mph N/A   Light Drizzle
5:55 AM 37.2 °F 28.3 °F 34.2 °F 89% 29.63 in 10.0 mi SSW 15.0 mph 25.3 mph N/A   Overcast
6:15 AM 36.9 °F 27.1 °F 34.0 °F 89% 29.63 in 10.0 mi South 17.3 mph 32.2 mph N/A Rain Light Rain
6:35 AM 37.2 °F 29.1 °F 34.2 °F 89% 29.63 in 10.0 mi South 12.7 mph 21.9 mph N/A   Overcast
6:55 AM 37.8 °F 28.0 °F 34.2 °F 87% 29.64 in 10.0 mi SSW 18.4 mph 28.8 mph N/A   Overcast
7:15 AM 37.9 °F 30.5 °F 34.0 °F 86% 29.63 in 10.0 mi SW 11.5 mph 24.2 mph N/A   Overcast
7:35 AM 39.2 °F 31.2 °F 34.0 °F 82% 29.61 in 10.0 mi SSW 13.8 mph 20.7 mph N/A   Mostly Cloudy
7:55 AM 40.1 °F 31.6 °F 34.2 °F 79% 29.63 in 10.0 mi SSW 16.1 mph 27.6 mph N/A   Mostly Cloudy
8:15 AM 41.5 °F 32.9 °F 34.7 °F 77% 29.64 in 10.0 mi SSW 18.4 mph 26.5 mph N/A   Overcast
8:35 AM 42.3 °F 34.4 °F 34.0 °F 72% 29.65 in 10.0 mi SSW 16.1 mph 27.6 mph N/A   Mostly Cloudy
8:55 AM 42.6 °F 34.3 °F 33.8 °F 71% 29.66 in 10.0 mi SSW 18.4 mph 25.3 mph N/A   Overcast
9:15 AM 41.9 °F 32.3 °F 33.3 °F 71% 29.66 in 10.0 mi SSW 23.0 mph 29.9 mph N/A   Overcast
9:35 AM 42.1 °F 33.1 °F 33.4 °F 71% 29.67 in 10.0 mi SW 20.7 mph 29.9 mph N/A   Overcast
9:55 AM 40.1 °F 29.0 °F 32.2 °F 73% 29.67 in 5.0 mi WSW 27.6 mph 36.8 mph N/A Rain Rain
10:15 AM 39.4 °F 29.2 °F 33.3 °F 79% 29.69 in 10.0 mi WSW 21.9 mph 28.8 mph N/A Rain Light Rain
10:35 AM 41.2 °F 32.7 °F 34.7 °F 78% 29.68 in 10.0 mi SW 17.3 mph 29.9 mph N/A   Overcast
10:55 AM 43.3 °F 34.0 °F 35.1 °F 73% 29.68 in 10.0 mi SW 24.2 mph 31.1 mph N/A   Mostly Cloudy
11:15 AM 43.9 °F 36.2 °F 32.9 °F 65% 29.69 in 10.0 mi WSW 17.3 mph 28.8 mph N/A   Scattered Clouds
11:35 AM 41.9 °F 32.8 °F 31.5 °F 66% 29.69 in 10.0 mi West 20.7 mph 33.4 mph N/A   Overcast
11:55 AM 40.6 °F 31.4 °F 33.6 °F 76% 29.70 in 7.0 mi SW 19.6 mph 35.7 mph N/A   Overcast
12:15 PM 43.0 °F 34.5 °F 32.2 °F 66% 29.69 in 10.0 mi WSW 19.6 mph 27.6 mph N/A   Scattered Clouds
12:35 PM 43.2 °F 32.8 °F 29.7 °F 59% 29.68 in 10.0 mi WSW 29.9 mph 36.8 mph N/A   Scattered Clouds
12:55 PM 46.2 °F 37.9 °F 29.5 °F 52% 29.67 in 10.0 mi WSW 24.2 mph 31.1 mph N/A   Scattered Clouds
1:15 PM 46.9 °F - 28.2 °F 48% 29.67 in 10.0 mi WSW 21.9 mph 34.5 mph N/A   Mostly Cloudy
1:35 PM 46.9 °F - 29.1 °F 50% 29.67 in 10.0 mi WSW 27.6 mph 35.7 mph N/A   Overcast
1:55 PM 46.8 °F - 26.8 °F 46% 29.67 in 10.0 mi WSW 26.5 mph 34.5 mph N/A   Mostly Cloudy
2:15 PM 47.3 °F - 27.9 °F 47% 29.67 in 10.0 mi WSW 20.7 mph 32.2 mph N/A   Scattered Clouds
2:35 PM 47.5 °F - 26.6 °F 44% 29.67 in 10.0 mi WSW 21.9 mph 31.1 mph N/A   Scattered Clouds
2:55 PM 47.1 °F - 26.4 °F 45% 29.67 in 10.0 mi WSW 25.3 mph 31.1 mph N/A   Scattered Clouds
3:15 PM 47.7 °F - 26.2 °F 43% 29.68 in 10.0 mi WSW 16.1 mph 26.5 mph N/A   Scattered Clouds
3:35 PM 45.7 °F 37.6 °F 27.5 °F 49% 29.69 in 10.0 mi WSW 21.9 mph 29.9 mph N/A   Scattered Clouds
3:55 PM 46.4 °F 39.8 °F 27.1 °F 47% 29.69 in 10.0 mi SW 16.1 mph 25.3 mph N/A   Clear
4:15 PM 45.3 °F 38.1 °F 27.9 °F 51% 29.70 in 10.0 mi WSW 17.3 mph 33.4 mph N/A   Scattered Clouds
4:35 PM 44.6 °F 36.9 °F 28.2 °F 53% 29.71 in 10.0 mi WSW 18.4 mph 25.3 mph N/A   Overcast
4:55 PM 43.7 °F 36.9 °F 27.3 °F 53% 29.72 in 10.0 mi WSW 13.8 mph 27.6 mph N/A   Overcast
5:15 PM 43.5 °F 37.5 °F 28.2 °F 55% 29.73 in 10.0 mi WSW 11.5 mph 17.3 mph N/A   Overcast
5:35 PM 40.3 °F 34.9 °F 28.9 °F 64% 29.74 in 10.0 mi WNW 8.1 mph - N/A   Overcast
5:55 PM 38.8 °F 33.8 °F 28.4 °F 66% 29.76 in 10.0 mi West 6.9 mph - N/A   Overcast
6:15 PM 36.1 °F 30.6 °F 28.0 °F 72% 29.78 in 10.0 mi WSW 6.9 mph - N/A   Overcast
6:35 PM 34.9 °F 30.8 °F 28.9 °F 79% 29.79 in 7.0 mi West 4.6 mph - N/A Snow Light Snow
6:55 PM 33.3 °F - 28.9 °F 84% 29.81 in 10.0 mi Calm Calm - N/A   Overcast
7:15 PM 32.4 °F - 29.1 °F 88% 29.81 in 10.0 mi Calm Calm - N/A   Overcast
7:35 PM 32.0 °F - 29.3 °F 90% 29.82 in 10.0 mi Calm Calm - N/A   Overcast
7:55 PM 33.4 °F - 29.7 °F 86% 29.83 in 10.0 mi Calm Calm - N/A   Overcast
8:15 PM 34.3 °F - 29.3 °F 82% 29.83 in 10.0 mi Calm Calm - N/A   Overcast
8:35 PM 34.5 °F - 29.3 °F 81% 29.84 in 10.0 mi Calm Calm - N/A   Mostly Cloudy
8:55 PM 34.9 °F 32.0 °F 30.2 °F 83% 29.84 in 10.0 mi SW 3.5 mph - N/A   Mostly Cloudy
9:15 PM 33.8 °F 29.6 °F 29.7 °F 85% 29.84 in 10.0 mi West 4.6 mph - N/A   Scattered Clouds
9:35 PM 33.6 °F - 29.3 °F 84% 29.85 in 10.0 mi Calm Calm - N/A   Scattered Clouds
9:55 PM 34.3 °F 29.2 °F 30.2 °F 85% 29.86 in 10.0 mi SW 5.8 mph - N/A   Mostly Cloudy
10:15 PM 36.0 °F 29.0 °F 30.6 °F 81% 29.86 in 10.0 mi SSW 9.2 mph - N/A   Overcast
10:35 PM 36.0 °F 31.1 °F 30.6 °F 81% 29.86 in 10.0 mi SSW 5.8 mph 9.2 mph N/A   Overcast
10:55 PM 36.5 °F 31.0 °F 30.2 °F 78% 29.86 in 10.0 mi SW 6.9 mph - N/A   Overcast
11:15 PM 34.0 °F 31.0 °F 29.7 °F 84% 29.86 in 10.0 mi West 3.5 mph - N/A   Scattered Clouds
11:35 PM 32.9 °F - 29.3 °F 87% 29.85 in 10.0 mi Calm Calm - N/A   Clear
11:55 PM 32.4 °F - 29.1 °F 88% 29.86 in 10.0 mi Calm Calm - N/A   Mostly Cloudy